Terug naar catalogus

IRIDIUM 26

ActiefCommunicatiePO
NORAD 24903·PAYLOAD·🇺🇸 United States

Gelanceerd Aug 21, 1997 vanaf Vandenberg Space Force Base

Loading…

Volgende Passages (komende 24 uur)

TLE

VersSource: Space-Track

Epoch: Sep 14, 2026, 08:42 UTC

1 24903U 97043A   26257.36274668  .00000220  00000-0  66919-4 0  9994
2 24903  86.3901 279.7115 0002363  86.8329 273.3139 14.37521681521980

Volg IRIDIUM 26 in realtime met AllMySat

Download on the App Store